FORTESCUE - NJ NJ-MESONET current weather conditions

sailwx.info

Wind from 048 at 6 knots gusting 7

Air temperature 23.3° C
Dewpoint 22.2° C

Last reported at 2020-Jul-04 11:55 UTC.
Time now 2020-Jul-04 12:26 UTC

Location: N 39°15' W 075°11'.
View on Google Maps.

See reports from other nearby stations

  
Tides and Currents Weather Stations Pressure Air Temp Water Temp Dewpoint Dewpoint Depression Visibility Wind Speed Wind Dir Waves Ship Positions
date/time (UTC)wind fromknots sea level pressurealtimeterstation pressurevisibilityair tempwater tempwave heightnotes
2020-Jul-04 12:05 045 6 gusting 6 23.3
2020-Jul-04 12:00 046 4 gusting 7 23.3
2020-Jul-04 11:55 048 6 gusting 7 23.3
2020-Jul-04 11:50 053 4 gusting 5 23.3
2020-Jul-04 11:45 065 3 gusting 6 22.8
2020-Jul-04 11:40 052 5 gusting 6 22.8
2020-Jul-04 11:35 046 6 gusting 7 22.8
2020-Jul-04 11:30 043 5 gusting 7 22.8
2020-Jul-04 11:25 076 7 gusting 7 23.3
2020-Jul-04 11:20 063 5 gusting 6 22.8
2020-Jul-04 11:15 066 5 gusting 10 22.8
2020-Jul-04 11:10 061 6 gusting 9 22.8
2020-Jul-04 11:05 057 6 gusting 6 22.8
2020-Jul-04 11:00 061 4 gusting 6 22.8
2020-Jul-04 10:55 068 5 gusting 6 22.8
2020-Jul-04 10:50 055 5 gusting 6 22.8
2020-Jul-04 10:45 068 6 gusting 6 22.8
2020-Jul-04 10:40 067 4 gusting 6 22.2
2020-Jul-04 10:35 063 5 gusting 9 22.2
2020-Jul-04 10:30 062 4 gusting 9 22.8
2020-Jul-04 10:25 063 7 gusting 9 22.2
2020-Jul-04 10:20 067 6 gusting 9 22.2
2020-Jul-04 10:15 075 6 gusting 9 22.2
2020-Jul-04 10:10 058 8 gusting 11 22.2
2020-Jul-04 10:05 075 8 gusting 10 22.2
2020-Jul-04 10:00 088 9 gusting 10 22.2
2020-Jul-04 09:55 074 6 gusting 10 22.2
2020-Jul-04 09:50 071 9 gusting 10 22.2
2020-Jul-04 09:45 076 5 gusting 9 22.2
2020-Jul-04 09:40 068 8 gusting 12 22.2
2020-Jul-04 09:35 079 9 gusting 11 22.2
2020-Jul-04 09:30 075 7 gusting 11 22.2
2020-Jul-04 09:25 059 4 gusting 9 22.2
2020-Jul-04 09:20 071 9 gusting 9 22.2
2020-Jul-04 09:15 058 6 gusting 7 22.2
2020-Jul-04 09:10 057 6 gusting 7 22.2
2020-Jul-04 09:05 057 6 gusting 8 22.2
2020-Jul-04 09:00 085 5 gusting 13 22.2
2020-Jul-04 08:55 067 6 gusting 12 22.2
2020-Jul-04 08:50 059 10 gusting 13 22.2
2020-Jul-04 08:45 055 13 gusting 14 22.2
2020-Jul-04 08:40 034 7 gusting 10 22.2
2020-Jul-04 08:35 051 6 gusting 10 22.2
2020-Jul-04 08:30 042 6 gusting 10 22.2
2020-Jul-04 08:25 049 6 gusting 8 22.2
2020-Jul-04 08:20 054 5 gusting 7 22.2
2020-Jul-04 08:15 024 5 gusting 9 22.2
2020-Jul-04 08:10 048 6 gusting 8 22.2
2020-Jul-04 08:05 036 6 gusting 7 22.2
2020-Jul-04 08:00 036 4 gusting 6 22.2
2020-Jul-04 07:55 044 6 gusting 7 22.2
2020-Jul-04 07:50 037 6 gusting 6 22.2
2020-Jul-04 07:45 042 5 gusting 6 22.2
2020-Jul-04 07:40 032 5 gusting 6 22.2
2020-Jul-04 07:35 017 4 gusting 6 22.2
2020-Jul-04 07:30 029 5 gusting 7 22.8
2020-Jul-04 07:25 035 6 gusting 8 22.2
2020-Jul-04 07:20 032 6 gusting 7 22.2
2020-Jul-04 07:15 036 6 gusting 8 22.2
2020-Jul-04 07:10 038 6 gusting 6 22.8
2020-Jul-04 07:05 017 5 gusting 6 22.8
2020-Jul-04 07:00 019 5 gusting 6 22.8
2020-Jul-04 06:55 024 4 gusting 6 22.8
2020-Jul-04 06:50 006 4 gusting 6 22.8
2020-Jul-04 06:45 014 5 gusting 7 22.8
2020-Jul-04 06:40 008 6 gusting 8 22.8
2020-Jul-04 06:35 006 6 gusting 10 22.8
2020-Jul-04 06:30 006 9 gusting 9 22.8
2020-Jul-04 06:25 020 6 gusting 9 23.3
2020-Jul-04 06:20 002 5 gusting 6 23.3
2020-Jul-04 06:15 021 5 gusting 6 23.3
2020-Jul-04 06:10 007 6 gusting 6 23.3
2020-Jul-04 06:05 034 5 gusting 7 23.3
2020-Jul-04 06:00 039 6 gusting 6 23.9
2020-Jul-04 05:55 027 5 gusting 5 23.9
2020-Jul-04 05:50 019 2 gusting 2 23.9
2020-Jul-04 05:45 037 2 gusting 3 23.9
2020-Jul-04 05:40 091 1 gusting 2 23.3
2020-Jul-04 05:35 097 0 gusting 5 23.9
2020-Jul-04 05:30 167 5 gusting 5 23.3
2020-Jul-04 05:25 153 3 gusting 5 23.3
2020-Jul-04 05:20 138 3 gusting 4 23.3
2020-Jul-04 05:15 132 1 gusting 3 23.3
2020-Jul-04 05:10 155 1 gusting 4 23.3
2020-Jul-04 05:05 073 5 gusting 6 23.3
2020-Jul-04 05:00 074 4 gusting 6 23.3
2020-Jul-04 04:55 100 4 gusting 7 22.8
2020-Jul-04 04:50 157 7 gusting 8 22.8
2020-Jul-04 04:45 151 7 gusting 7 22.8
2020-Jul-04 04:40 142 6 gusting 9 22.8
2020-Jul-04 04:35 130 6 gusting 10 22.8
2020-Jul-04 04:30 156 7 gusting 10 22.8
2020-Jul-04 04:25 096 3 gusting 7 22.2
2020-Jul-04 04:20 110 4 gusting 8 22.2
2020-Jul-04 04:15 132 5 gusting 6 22.8
2020-Jul-04 04:10 076 4 gusting 9 23.3
2020-Jul-04 04:05 039 9 gusting 13 23.3
2020-Jul-04 04:00 038 14 gusting 18 23.9
2020-Jul-04 03:55 015 13 gusting 18 25.0
2020-Jul-04 03:50 015 11 gusting 14 25.0
2020-Jul-04 03:45 360 13 gusting 16 25.0
2020-Jul-04 03:40 035 16 gusting 18 25.0
2020-Jul-04 03:35 042 13 gusting 19 25.6
2020-Jul-04 03:30 055 17 gusting 19 25.6
2020-Jul-04 03:25 067 11 gusting 16 25.6
2020-Jul-04 03:20 058 9 gusting 16 25.6
2020-Jul-04 03:15 052 9 gusting 15 26.1
2020-Jul-04 03:10 056 8 gusting 12 26.7
2020-Jul-04 03:05 048 7 gusting 8 26.7
2020-Jul-04 03:00 037 6 gusting 8 26.7
2020-Jul-04 02:55 024 6 gusting 9 26.7
2020-Jul-04 02:50 031 6 gusting 6 26.1
2020-Jul-04 02:45 021 4 gusting 7 26.7
2020-Jul-04 02:40 019 4 gusting 7 26.7
2020-Jul-04 02:35 359 6 gusting 9 26.7
2020-Jul-04 02:30 007 6 gusting 9 27.2
2020-Jul-04 02:25 002 6 gusting 6 27.2
2020-Jul-04 02:20 145 2 gusting 3 27.2
2020-Jul-04 02:15 097 2 gusting 3 27.2
2020-Jul-04 02:10 134 2 gusting 3 27.2
2020-Jul-04 02:05 109 1 gusting 3 27.2
2020-Jul-04 02:00 107 3 gusting 6 27.2
2020-Jul-04 01:55 143 2 gusting 6 27.2
2020-Jul-04 01:50 124 5 gusting 6 27.2
2020-Jul-04 01:45 117 4 gusting 6 27.2
2020-Jul-04 01:40 120 4 gusting 6 27.2
2020-Jul-04 01:35 140 3 gusting 6 27.2
2020-Jul-04 01:30 139 6 gusting 6 27.2
2020-Jul-04 01:25 133 6 gusting 7 27.2
2020-Jul-04 01:20 119 4 gusting 6 27.8
2020-Jul-04 01:15 128 5 gusting 6 27.8
2020-Jul-04 01:10 132 5 gusting 6 27.8
2020-Jul-04 01:05 120 4 gusting 6 27.8
2020-Jul-04 01:00 126 3 gusting 6 27.8
2020-Jul-04 00:55 121 6 gusting 6 28.3
2020-Jul-04 00:50 136 2 gusting 5 28.3
2020-Jul-04 00:45 125 1 gusting 4 28.3
2020-Jul-04 00:40 128 3 gusting 4 28.3
2020-Jul-04 00:35 148 3 gusting 3 28.3
2020-Jul-04 00:30 203 3 gusting 4 28.3
2020-Jul-04 00:25 220 2 gusting 5 28.3
2020-Jul-04 00:20 217 5 gusting 5 28.3
2020-Jul-04 00:15 223 3 gusting 4 28.3
2020-Jul-04 00:10 211 3 gusting 4 28.9
2020-Jul-04 00:05 227 3 gusting 3 28.9
2020-Jul-04 00:00 226 3 gusting 3 29.4
2020-Jul-03 23:55 250 3 gusting 4 29.4
2020-Jul-03 23:50 237 4 gusting 4 29.4
2020-Jul-03 23:45 269 4 gusting 5 29.4
2020-Jul-03 23:40 263 4 gusting 4 29.4
2020-Jul-03 23:35 264 4 gusting 6 30.0
2020-Jul-03 23:30 273 6 gusting 6 30.0
2020-Jul-03 23:25 270 6 gusting 6 30.0
2020-Jul-03 23:20 271 6 gusting 6 30.0
2020-Jul-03 23:15 263 6 gusting 6 30.0
2020-Jul-03 23:10 268 6 gusting 6 30.0
2020-Jul-03 23:05 264 6 gusting 7 30.0
2020-Jul-03 23:00 272 6 gusting 7 30.0
2020-Jul-03 22:55 270 7 gusting 7 30.0
2020-Jul-03 22:50 258 6 gusting 6 29.4
2020-Jul-03 22:45 254 6 gusting 6 30.0
2020-Jul-03 22:40 259 6 gusting 6 30.0
2020-Jul-03 22:35 275 6 gusting 6 30.6
2020-Jul-03 22:30 271 6 gusting 6 31.1
2020-Jul-03 22:25 271 6 gusting 6 30.6
2020-Jul-03 22:20 268 5 gusting 7 31.1
2020-Jul-03 22:15 272 6 gusting 8 31.1
2020-Jul-03 22:10 279 8 gusting 9 31.1
2020-Jul-03 22:05 277 8 gusting 9 31.1
2020-Jul-03 22:00 279 8 gusting 10 31.1
2020-Jul-03 21:55 281 9 gusting 11 31.1
2020-Jul-03 21:50 277 10 gusting 12 31.1
2020-Jul-03 21:45 282 9 gusting 11 31.1
2020-Jul-03 21:40 278 9 gusting 12 31.1
2020-Jul-03 21:35 281 10 gusting 12 31.1
2020-Jul-03 21:30 279 11 gusting 12 31.1
2020-Jul-03 21:25 283 10 gusting 12 31.1
2020-Jul-03 21:20 280 11 gusting 12 31.1
2020-Jul-03 21:15 282 10 gusting 11 31.1
2020-Jul-03 21:10 277 9 gusting 11 31.1
2020-Jul-03 21:05 280 9 gusting 12 31.1
2020-Jul-03 21:00 280 12 gusting 12 31.1
2020-Jul-03 20:55 269 9 gusting 10 31.1
2020-Jul-03 20:50 271 8 gusting 11 31.1
2020-Jul-03 20:45 277 8 gusting 10 31.1
2020-Jul-03 20:40 273 9 gusting 10 31.1
2020-Jul-03 20:35 277 8 gusting 10 30.6
2020-Jul-03 20:30 271 7 gusting 9 30.6
2020-Jul-03 20:25 276 6 gusting 8 31.1
2020-Jul-03 20:20 286 8 gusting 10 31.7
2020-Jul-03 20:15 291 9 gusting 11 32.2
2020-Jul-03 20:10 296 11 gusting 11 31.7
2020-Jul-03 20:05 294 10 gusting 12 31.7
2020-Jul-03 20:00 298 9 gusting 12 31.1
2020-Jul-03 19:55 282 10 gusting 12 31.1
2020-Jul-03 19:50 293 10 gusting 13 31.1
2020-Jul-03 19:45 291 12 gusting 13 30.6
2020-Jul-03 19:40 289 12 gusting 13 31.1
2020-Jul-03 19:35 288 11 gusting 13 31.1
2020-Jul-03 19:30 292 12 gusting 13 31.7
2020-Jul-03 19:25 291 12 gusting 13 31.1
2020-Jul-03 19:20 288 10 gusting 11 30.6
2020-Jul-03 19:15 279 7 gusting 11 30.6
2020-Jul-03 19:10 277 10 gusting 11 30.6
2020-Jul-03 19:05 280 10 gusting 12 30.6
2020-Jul-03 19:00 282 10 gusting 11 30.6
2020-Jul-03 18:55 278 9 gusting 10 31.1
2020-Jul-03 18:50 276 9 gusting 11 31.1
2020-Jul-03 18:45 284 10 gusting 11 30.6
2020-Jul-03 18:40 284 10 gusting 12 31.1
2020-Jul-03 18:35 283 9 gusting 12 30.6
2020-Jul-03 18:30 282 11 gusting 13 30.6
2020-Jul-03 18:25 294 12 gusting 12 30.6
2020-Jul-03 18:20 287 7 gusting 11 30.6
2020-Jul-03 18:15 285 10 gusting 13 30.6
2020-Jul-03 18:10 291 12 gusting 13 31.1
2020-Jul-03 18:05 294 12 gusting 12 30.6
2020-Jul-03 18:00 288 11 gusting 13 30.6
2020-Jul-03 17:55 298 12 gusting 13 30.6
2020-Jul-03 17:50 282 11 gusting 14 30.0
2020-Jul-03 17:45 286 13 gusting 14 30.6
2020-Jul-03 17:40 297 12 gusting 13 30.0
2020-Jul-03 17:35 297 11 gusting 13 30.0
2020-Jul-03 17:30 288 10 gusting 13 30.0
2020-Jul-03 17:25 290 10 gusting 13 30.0
2020-Jul-03 17:20 292 12 gusting 14 30.0
2020-Jul-03 17:15 290 13 gusting 13 29.4
2020-Jul-03 17:10 288 12 gusting 13 29.4
2020-Jul-03 17:05 284 10 gusting 13 29.4
2020-Jul-03 17:00 287 12 gusting 13 29.4
2020-Jul-03 16:55 278 10 gusting 12 29.4
2020-Jul-03 16:50 279 10 gusting 12 29.4
2020-Jul-03 16:45 291 12 gusting 13 29.4
2020-Jul-03 16:40 286 12 gusting 12 29.4
2020-Jul-03 16:35 284 11 gusting 12 29.4
2020-Jul-03 16:30 287 10 gusting 10 29.4
2020-Jul-03 16:25 281 9 gusting 10 28.9
2020-Jul-03 16:20 285 10 gusting 11 29.4
2020-Jul-03 16:15 281 10 gusting 10 29.4
2020-Jul-03 16:10 287 8 gusting 10 29.4
2020-Jul-03 16:05 294 9 gusting 10 30.0
2020-Jul-03 16:00 283 6 gusting 10 30.6
2020-Jul-03 15:55 317 1 gusting 6 33.9
2020-Jul-03 15:50 358 2 gusting 9 32.8
2020-Jul-03 15:45 332 5 gusting 6 32.8
2020-Jul-03 15:40 344 7 gusting 7 32.8
2020-Jul-03 15:35 021 6 gusting 6 32.8
2020-Jul-03 15:30 012 4 gusting 7 32.2
2020-Jul-03 15:25 344 6 gusting 8 32.2
2020-Jul-03 15:20 352 6 gusting 8 32.8
2020-Jul-03 15:15 316 4 gusting 8 32.2
2020-Jul-03 15:10 355 6 gusting 9 32.2
2020-Jul-03 15:05 001 4 gusting 7 31.7
2020-Jul-03 15:00 316 4 gusting 8 31.7
2020-Jul-03 14:55 346 7 gusting 10 31.7
2020-Jul-03 14:50 356 4 gusting 9 31.7
2020-Jul-03 14:45 008 6 gusting 10 31.7
2020-Jul-03 14:40 350 6 gusting 9 31.7
2020-Jul-03 14:35 352 8 gusting 12 31.1
2020-Jul-03 14:30 355 12 gusting 13 31.7
2020-Jul-03 14:25 011 9 gusting 12 31.1
2020-Jul-03 14:20 329 7 gusting 11 30.6
2020-Jul-03 14:15 326 8 gusting 12 30.6
2020-Jul-03 14:10 326 7 gusting 12 30.6
2020-Jul-03 14:05 326 8 gusting 11 31.1
2020-Jul-03 14:00 352 8 gusting 11 30.6
2020-Jul-03 13:55 359 6 gusting 11 30.6
2020-Jul-03 13:50 007 12 gusting 13 30.6
2020-Jul-03 13:45 003 9 gusting 12 30.6
2020-Jul-03 13:40 354 10 gusting 13 30.0
2020-Jul-03 13:35 327 10 gusting 13 30.0
2020-Jul-03 13:30 349 7 gusting 11 30.0
2020-Jul-03 13:25 326 10 gusting 12 29.4
2020-Jul-03 13:20 328 10 gusting 13 29.4
2020-Jul-03 13:15 332 9 gusting 12 30.0
2020-Jul-03 13:10 338 10 gusting 13 29.4
2020-Jul-03 13:05 353 6 gusting 11 29.4
2020-Jul-03 13:00 315 7 gusting 12 29.4
2020-Jul-03 12:55 344 9 gusting 13 28.9
2020-Jul-03 12:50 346 9 gusting 13 28.3
2020-Jul-03 12:45 323 11 gusting 12 28.3
2020-Jul-03 12:40 325 10 gusting 13 27.8
2020-Jul-03 12:35 348 7 gusting 11 27.8
2020-Jul-03 12:30 335 7 gusting 10 27.8
2020-Jul-03 12:25 353 5 gusting 11 27.2
2020-Jul-03 12:20 344 7 gusting 11 27.2
2020-Jul-03 12:15 328 10 gusting 10 26.7
2020-Jul-03 12:10 329 7 gusting 9 26.7
2020-Jul-03 12:05 346 6 gusting 8 26.7
2020-Jul-03 12:00 349 8 gusting 10 26.1
2020-Jul-03 11:55 336 8 gusting 11 26.1
2020-Jul-03 11:50 329 7 gusting 11 25.6
2020-Jul-03 11:45 324 9 gusting 10 25.6
2020-Jul-03 11:40 332 6 gusting 8 25.6
2020-Jul-03 11:35 342 6 gusting 7 25.0
2020-Jul-03 11:30 337 6 gusting 7 25.0
2020-Jul-03 11:25 343 6 gusting 7 25.0
2020-Jul-03 11:20 348 5 gusting 6 24.4
2020-Jul-03 11:15 344 4 gusting 6 24.4
2020-Jul-03 11:10 346 6 gusting 6 24.4
2020-Jul-03 11:05 342 6 gusting 7 23.9
2020-Jul-03 11:00 336 6 gusting 6 23.9
2020-Jul-03 10:55 340 6 gusting 6 23.9
2020-Jul-03 10:50 338 4 gusting 6 23.3
2020-Jul-03 10:45 346 4 gusting 6 23.3
2020-Jul-03 10:40 339 5 gusting 6 23.3
2020-Jul-03 10:35 338 4 gusting 6 23.3
2020-Jul-03 10:30 329 5 gusting 6 22.8
2020-Jul-03 10:25 346 5 gusting 6 22.8
2020-Jul-03 10:20 349 4 gusting 6 22.8
2020-Jul-03 10:15 339 6 gusting 6 22.8
2020-Jul-03 10:10 358 6 gusting 8 22.8
2020-Jul-03 10:05 336 6 gusting 8 22.2
2020-Jul-03 10:00 344 6 gusting 7 22.8
2020-Jul-03 09:55 326 6 gusting 7 22.8
2020-Jul-03 09:50 330 6 gusting 6 22.8
2020-Jul-03 09:45 332 6 gusting 7 22.8
2020-Jul-03 09:40 336 6 gusting 6 22.2
2020-Jul-03 09:35 334 5 gusting 6 22.2
2020-Jul-03 09:30 326 5 gusting 6 22.2
2020-Jul-03 09:25 359 6 gusting 7 22.2
2020-Jul-03 09:20 357 6 gusting 7 22.8
2020-Jul-03 09:15 345 6 gusting 6 22.8
2020-Jul-03 09:10 347 6 gusting 6 22.8
2020-Jul-03 09:05 348 6 gusting 7 22.8
2020-Jul-03 09:00 332 7 gusting 8 23.3
2020-Jul-03 08:55 327 7 gusting 8 23.3
2020-Jul-03 08:50 336 5 gusting 9 23.3
2020-Jul-03 08:45 336 8 gusting 9 23.3
2020-Jul-03 08:40 323 6 gusting 8 23.9
2020-Jul-03 08:35 324 6 gusting 9 23.9
2020-Jul-03 08:30 313 8 gusting 8 23.9
2020-Jul-03 08:25 312 6 gusting 7 23.9
2020-Jul-03 08:20 325 6 gusting 7 23.9
2020-Jul-03 08:15 340 6 gusting 8 23.9
2020-Jul-03 08:10 318 7 gusting 8 23.9
2020-Jul-03 08:05 323 6 gusting 7 23.9
2020-Jul-03 08:00 318 5 gusting 6 23.9
2020-Jul-03 07:55 324 5 gusting 6 23.3
2020-Jul-03 07:50 325 4 gusting 6 23.9
2020-Jul-03 07:45 318 5 gusting 6 23.9
2020-Jul-03 07:40 326 6 gusting 6 23.9
2020-Jul-03 07:35 330 6 gusting 7 23.9
2020-Jul-03 07:30 334 7 gusting 8 23.9
2020-Jul-03 07:25 334 7 gusting 8 23.9
2020-Jul-03 07:20 326 6 gusting 8 23.9
2020-Jul-03 07:15 328 7 gusting 7 23.3
2020-Jul-03 07:10 346 6 gusting 7 23.3
2020-Jul-03 07:05 350 6 gusting 8 23.3
2020-Jul-03 07:00 354 6 gusting 7 23.3
2020-Jul-03 06:55 350 6 gusting 7 23.9
2020-Jul-03 06:50 354 6 gusting 7 23.9
2020-Jul-03 06:45 341 6 gusting 8 23.9
2020-Jul-03 06:40 340 6 gusting 8 24.4
2020-Jul-03 06:35 326 7 gusting 7 24.4
2020-Jul-03 06:30 323 6 gusting 7 24.4
2020-Jul-03 06:25 332 6 gusting 7 25.0
2020-Jul-03 06:20 318 6 gusting 7 25.0
2020-Jul-03 06:15 329 6 gusting 7 25.0
2020-Jul-03 06:10 325 6 gusting 7 25.0
2020-Jul-03 06:05 324 6 gusting 6 25.0
2020-Jul-03 06:00 328 6 gusting 6 25.0
2020-Jul-03 05:55 318 6 gusting 7 25.0
2020-Jul-03 05:50 318 6 gusting 7 25.0
2020-Jul-03 05:45 318 6 gusting 7 25.6
2020-Jul-03 05:40 324 8 gusting 8 25.6
2020-Jul-03 05:35 327 6 gusting 12 26.1
2020-Jul-03 05:30 312 10 gusting 12 26.7
2020-Jul-03 05:25 307 8 gusting 11 26.7
2020-Jul-03 05:20 312 9 gusting 11 26.7
2020-Jul-03 05:15 315 10 gusting 11 26.1
2020-Jul-03 05:10 323 6 gusting 7 26.1
2020-Jul-03 05:05 324 5 gusting 9 26.7
2020-Jul-03 05:00 310 7 gusting 10 26.7
2020-Jul-03 04:55 304 9 gusting 9 26.7
2020-Jul-03 04:50 296 8 gusting 10 26.7
2020-Jul-03 04:45 300 8 gusting 10 26.7
2020-Jul-03 04:40 301 7 gusting 9 26.7
2020-Jul-03 04:35 300 6 gusting 9 26.7
2020-Jul-03 04:30 313 6 gusting 9 26.7
2020-Jul-03 04:25 310 6 gusting 8 26.7
2020-Jul-03 04:20 309 8 gusting 10 27.2
2020-Jul-03 04:15 300 7 gusting 8 26.7
2020-Jul-03 04:10 307 5 gusting 6 26.1
2020-Jul-03 04:05 300 4 gusting 5 26.1
2020-Jul-03 04:00 305 3 gusting 6 26.7
2020-Jul-03 03:55 307 5 gusting 6 26.7
2020-Jul-03 03:50 308 6 gusting 7 26.7
2020-Jul-03 03:45 301 7 gusting 8 26.7
2020-Jul-03 03:40 300 6 gusting 8 26.7
2020-Jul-03 03:35 304 8 gusting 9 26.7
2020-Jul-03 03:30 304 9 gusting 9 26.7
2020-Jul-03 03:25 302 6 gusting 8 27.2
2020-Jul-03 03:20 309 6 gusting 9 27.2
2020-Jul-03 03:15 302 9 gusting 11 27.2
2020-Jul-03 03:10 292 9 gusting 11 27.2
2020-Jul-03 03:05 289 10 gusting 12 27.2
2020-Jul-03 03:00 281 10 gusting 12 27.2
2020-Jul-03 02:55 281 13 gusting 13 27.2
2020-Jul-03 02:50 283 13 gusting 13 27.2
2020-Jul-03 02:45 280 11 gusting 13 27.8
2020-Jul-03 02:40 279 11 gusting 13 27.8
2020-Jul-03 02:35 284 11 gusting 13 27.8
2020-Jul-03 02:30 279 10 gusting 13 27.8
2020-Jul-03 02:25 278 10 gusting 13 27.8
2020-Jul-03 02:20 280 9 gusting 14 27.8
2020-Jul-03 02:15 277 13 gusting 15 27.8
2020-Jul-03 02:10 278 13 gusting 15 27.8
2020-Jul-03 02:05 278 12 gusting 13 27.8
2020-Jul-03 02:00 274 11 gusting 13 27.8
2020-Jul-03 01:55 277 9 gusting 12 27.8
2020-Jul-03 01:50 273 11 gusting 13 27.8
2020-Jul-03 01:45 272 11 gusting 13 27.8
2020-Jul-03 01:40 274 11 gusting 13 27.8
2020-Jul-03 01:35 273 11 gusting 13 27.8
2020-Jul-03 01:30 275 11 gusting 13 27.8
2020-Jul-03 01:25 262 12 gusting 13 27.8
2020-Jul-03 01:20 274 10 gusting 13 27.8
2020-Jul-03 01:15 260 10 gusting 12 27.8
2020-Jul-03 01:10 270 10 gusting 12 27.8
2020-Jul-03 01:05 271 11 gusting 12 28.3
2020-Jul-03 01:00 272 10 gusting 12 28.3
2020-Jul-03 00:55 276 9 gusting 13 28.3
2020-Jul-03 00:50 273 10 gusting 12 28.3
2020-Jul-03 00:45 272 8 gusting 11 28.3
2020-Jul-03 00:40 271 9 gusting 12 28.3
2020-Jul-03 00:35 274 10 gusting 12 28.3
2020-Jul-03 00:30 274 11 gusting 12 28.3
2020-Jul-03 00:25 275 11 gusting 12 28.3
2020-Jul-03 00:20 271 11 gusting 12 28.3
2020-Jul-03 00:15 282 11 gusting 13 28.3
2020-Jul-03 00:10 276 11 gusting 13 28.9
2020-Jul-03 00:05 281 10 gusting 13 28.9
2020-Jul-03 00:00 281 12 gusting 13 28.9
2020-Jul-02 23:55 285 11 gusting 13 28.9
2020-Jul-02 23:50 286 11 gusting 13 28.9
2020-Jul-02 23:45 282 8 gusting 11 28.3
2020-Jul-02 23:40 280 8 gusting 11 28.9
2020-Jul-02 23:35 269 7 gusting 11 28.9
2020-Jul-02 23:30 264 10 gusting 11 28.9
2020-Jul-02 23:25 261 10 gusting 12 28.9
2020-Jul-02 23:20 251 10 gusting 11 28.9
2020-Jul-02 23:15 257 8 gusting 10 28.9
2020-Jul-02 23:10 251 8 gusting 10 28.9
2020-Jul-02 23:05 262 8 gusting 9 28.3
2020-Jul-02 23:00 260 8 gusting 9 28.9
2020-Jul-02 22:55 261 6 gusting 9 28.9
2020-Jul-02 22:50 259 9 gusting 9 28.9
2020-Jul-02 22:45 258 8 gusting 9 28.9
2020-Jul-02 22:40 262 7 gusting 7 28.3
2020-Jul-02 22:35 268 6 gusting 6 28.3
2020-Jul-02 22:30 255 6 gusting 8 28.9
2020-Jul-02 22:25 245 7 gusting 8 28.3
2020-Jul-02 22:20 246 7 gusting 8 28.3
2020-Jul-02 22:15 238 7 gusting 8 28.3
2020-Jul-02 22:10 231 8 gusting 9 28.3
2020-Jul-02 22:05 235 7 gusting 8 28.3
2020-Jul-02 22:00 230 6 gusting 8 28.3
2020-Jul-02 21:55 243 7 gusting 8 28.9
2020-Jul-02 21:50 257 6 gusting 7 28.9
2020-Jul-02 21:45 265 6 gusting 8 28.9
2020-Jul-02 21:40 264 6 gusting 8 29.4
2020-Jul-02 21:35 271 7 gusting 7 29.4
2020-Jul-02 21:30 273 7 gusting 8 29.4
2020-Jul-02 21:25 275 7 gusting 8 29.4
2020-Jul-02 21:20 277 7 gusting 8 29.4
2020-Jul-02 21:15 284 6 gusting 9 30.0
2020-Jul-02 21:10 280 8 gusting 9 30.0
2020-Jul-02 21:05 281 8 gusting 8 30.0
2020-Jul-02 21:00 277 6 gusting 10 30.0
2020-Jul-02 20:55 281 8 gusting 10 29.4
2020-Jul-02 20:50 281 10 gusting 11 29.4
2020-Jul-02 20:45 280 8 gusting 10 29.4
2020-Jul-02 20:40 275 8 gusting 10 29.4
2020-Jul-02 20:35 272 8 gusting 10 29.4
2020-Jul-02 20:30 278 8 gusting 10 29.4
2020-Jul-02 20:25 279 9 gusting 11 29.4
2020-Jul-02 20:20 278 9 gusting 10 29.4
2020-Jul-02 20:15 273 8 gusting 10 29.4
2020-Jul-02 20:10 270 9 gusting 11 29.4
2020-Jul-02 20:05 276 10 gusting 12 29.4
2020-Jul-02 20:00 282 10 gusting 13 29.4
2020-Jul-02 19:55 277 10 gusting 12 29.4
2020-Jul-02 19:50 285 12 gusting 13 29.4
2020-Jul-02 19:45 286 11 gusting 13 28.9
2020-Jul-02 19:40 281 12 gusting 13 29.4
2020-Jul-02 19:35 274 10 gusting 14 28.9
2020-Jul-02 19:30 280 13 gusting 14 28.9
2020-Jul-02 19:25 274 12 gusting 14 28.9
2020-Jul-02 19:20 283 13 gusting 14 28.9
2020-Jul-02 19:15 273 13 gusting 13 28.9
2020-Jul-02 19:10 275 12 gusting 13 28.9
2020-Jul-02 19:05 282 13 gusting 13 28.9
2020-Jul-02 19:00 277 13 gusting 14 28.9
2020-Jul-02 18:55 285 13 gusting 15 28.3
2020-Jul-02 18:50 283 13 gusting 16 28.3
2020-Jul-02 18:45 277 13 gusting 13 28.3
2020-Jul-02 18:40 279 13 gusting 15 28.3
2020-Jul-02 18:35 286 12 gusting 14 28.3
2020-Jul-02 18:30 283 13 gusting 15 28.3
2020-Jul-02 18:25 281 13 gusting 14 28.3
2020-Jul-02 18:20 283 10 gusting 13 27.8
2020-Jul-02 18:15 275 10 gusting 13 27.8
2020-Jul-02 18:10 283 13 gusting 13 28.3
2020-Jul-02 18:05 273 10 gusting 13 27.8
2020-Jul-02 18:00 277 13 gusting 14 28.3
2020-Jul-02 17:55 293 13 gusting 15 27.8
2020-Jul-02 17:50 298 13 gusting 14 27.8
2020-Jul-02 17:45 284 13 gusting 13 28.3
2020-Jul-02 17:40 275 12 gusting 14 28.3
2020-Jul-02 17:35 284 13 gusting 13 27.8
2020-Jul-02 17:30 272 9 gusting 12 28.3
2020-Jul-02 17:25 277 10 gusting 12 28.3
2020-Jul-02 17:20 284 11 gusting 14 27.8
2020-Jul-02 17:15 288 13 gusting 14 27.8
2020-Jul-02 17:10 296 10 gusting 13 28.3
2020-Jul-02 17:05 324 5 gusting 9 31.1
2020-Jul-02 17:00 334 4 gusting 11 30.6
2020-Jul-02 16:55 016 6 gusting 10 30.6
2020-Jul-02 16:50 017 10 gusting 11 30.0
2020-Jul-02 16:45 353 9 gusting 13 30.6
2020-Jul-02 16:40 309 1 gusting 4 30.6
2020-Jul-02 16:35 013 30.0
2020-Jul-02 16:30 006 4 gusting 8 30.0
2020-Jul-02 16:25 324 6 gusting 10 29.4
2020-Jul-02 16:20 341 9 gusting 14 30.0
2020-Jul-02 16:15 026 8 gusting 11 29.4
2020-Jul-02 16:10 001 5 gusting 10 29.4
2020-Jul-02 16:05 357 1 gusting 11 28.9
2020-Jul-02 16:00 324 11 gusting 12 29.4
2020-Jul-02 15:55 339 8 gusting 10 29.4
2020-Jul-02 15:50 348 6 gusting 10 28.9
2020-Jul-02 15:45 037 5 gusting 13 29.4
2020-Jul-02 15:40 339 9 gusting 10 29.4
2020-Jul-02 15:35 026 8 gusting 10 28.9
2020-Jul-02 15:30 034 7 gusting 8 28.3
2020-Jul-02 15:25 008 7 gusting 12 28.3
2020-Jul-02 15:20 032 3 gusting 8 28.3
2020-Jul-02 15:15 040 7 gusting 8 28.3
2020-Jul-02 15:10 002 7 gusting 11 28.3
2020-Jul-02 15:05 045 9 gusting 12 28.3
2020-Jul-02 15:00 025 9 gusting 11 27.8
2020-Jul-02 14:55 007 6 gusting 11 28.3
2020-Jul-02 14:50 323 5 gusting 8 27.8
2020-Jul-02 14:45 345 5 gusting 8 27.8
2020-Jul-02 14:40 030 7 gusting 10 27.2
2020-Jul-02 14:35 024 7 gusting 11 27.2
2020-Jul-02 14:30 027 8 gusting 13 27.2
2020-Jul-02 14:25 330 5 gusting 8 27.2
2020-Jul-02 14:20 032 5 gusting 12 27.2
2020-Jul-02 14:15 017 10 gusting 13 26.7
2020-Jul-02 14:10 036 7 gusting 13 26.7
2020-Jul-02 14:05 011 6 gusting 14 26.7
2020-Jul-02 14:00 017 8 gusting 12 26.7
2020-Jul-02 13:55 003 8 gusting 11 26.7
2020-Jul-02 13:50 019 7 gusting 13 26.1
2020-Jul-02 13:45 020 7 gusting 13 26.1
2020-Jul-02 13:40 025 11 gusting 15 25.6
2020-Jul-02 13:35 012 11 gusting 11 25.6
2020-Jul-02 13:30 014 8 gusting 10 26.1
2020-Jul-02 13:25 360 8 gusting 13 25.6
2020-Jul-02 13:20 001 8 gusting 13 25.6
2020-Jul-02 13:15 005 10 gusting 13 25.6
2020-Jul-02 13:10 021 7 gusting 13 25.0
2020-Jul-02 13:05 019 9 gusting 13 25.0
2020-Jul-02 13:00 013 8 gusting 12 25.0
2020-Jul-02 12:55 020 11 gusting 13 24.4
2020-Jul-02 12:50 007 9 gusting 12 24.4
2020-Jul-02 12:45 003 9 gusting 13 24.4
2020-Jul-02 12:40 017 7 gusting 11 24.4
2020-Jul-02 12:35 009 9 gusting 11 23.9
2020-Jul-02 12:30 010 9 gusting 11 23.9
2020-Jul-02 12:25 017 6 gusting 10 23.9
2020-Jul-02 12:20 019 7 gusting 10 23.3
2020-Jul-02 12:15 012 6 gusting 9 23.9
2020-Jul-02 12:10 011 7 gusting 8 23.9
2020-Jul-02 12:05 024 5 gusting 9 23.3
2020-Jul-02 12:00 016 7 gusting 9 22.8